Temperature
9 11 11 11 11 11 11 11 12 12 11 10 11 12 12 11 10 10 10 10 10 9 9 8 8 8 8 8 8 8 8 8 8 8 8 8 8 8 8 8 8 8 8 8
10 10 10 10 9 10 10 11 11 11 10 10 10 11 12 11 10 10 10 10 9 9 8 8 8 8 8 8 8 8 8 7 7 7 7 7 7 7 7 7 7 7 7 7
10 10 9 9 9 9 10 10 10 10 9 9 9 11 12 11 10 9 9 9 8 8 8 7 7 7 7 7 8 7 7 7 7 7 7 7 7 7 7 7 7 7 7 7
9 8 8 8 9 9 10 9 9 8 9 10 9 11 12 11 10 10 9 8 8 8 7 7 7 7 7 7 7 7 7 7 7 6 6 6 6 6 7 6 7 7 6 6
8 7 7 8 8 8 8 8 8 8 8 8 9 9 12 11 10 10 10 8 8 7 7 7 7 7 7 7 7 7 6 6 6 6 6 6 6 6 6 6 6 6 6 6
7 6 7 7 7 7 7 7 7 7 8 8 9 9 11 11 10 10 10 8 7 7 7 6 6 7 7 6 6 6 6 6 6 6 5 5 5 6 5 5 5 5 5 5
7 7 6 6 7 7 7 8 8 8 8 9 8 8 10 11 10 9 9 8 7 7 6 6 6 6 6 6 6 6 6 6 6 5 5 5 5 5 5 5 5 5 5 5
7 7 6 6 7 7 7 8 8 9 9 10 7 8 10 9 8 7 7 7 6 6 6 6 6 5 6 6 6 5 5 5 5 5 5 5 5 5 5 5 4 4 4 4
7 7 5 5 5 6 6 7 7 7 6 7 9 9 9 8 8 7 7 6 6 6 6 5 5 5 5 5 5 5 5 5 5 5 5 5 4 4 4 4 4 4 4 4
6 5 5 5 5 5 6 6 6 6 6 8 9 9 10 9 8 7 7 6 6 6 5 5 5 5 5 5 5 5 5 5 4 4 4 4 4 4 4 4 4 4 4 3
5 4 4 4 5 5 4 4 5 6 6 7 8 10 9 8 8 7 6 5 5 5 5 5 5 4 4 4 4 4 4 4 4 3 4 4 4 4 3 3 3 3 3 3
4 4 4 5 4 4 5 5 5 5 5 5 7 8 8 6 6 6 5 5 5 5 4 4 4 4 4 4 4 4 3 3 3 3 3 3 3 3 3 3 3 3 3 3
3 3 4 4 4 3 3 3 3 3 4 5 6 8 7 6 5 5 5 5 4 4 4 4 4 3 3 3 3 3 3 3 3 2 2 2 2 3 3 3 3 3 3 3
3 2 4 5 5 4 3 3 3 3 4 5 6 7 7 6 6 5 5 4 4 4 3 3 3 3 3 3 3 3 2 2 2 2 2 2 2 2 2 2 2 2 2 2
2 2 2 3 3 3 3 3 2 2 4 4 6 5 6 6 5 5 4 3 3 3 3 3 2 2 2 2 2 2 2 2 2 2 2 2 2 2 2 2 2 2 2 2
1 1 1 1 2 2 2 2 3 2 3 3 4 4 5 5 4 4 3 3 2 2 2 2 2 2 2 2 2 2 2 2 1 1 1 1 1 1 1 2 2 2 2 1
0 0 1 3 2 1 2 3 3 3 3 3 3 4 5 4 4 3 3 2 2 2 2 2 2 1 1 2 1 1 1 1 1 1 1 1 1 1 1 1 1 1 1 1
-1 -0 0 1 1 2 4 3 3 2 2 2 3 3 3 3 2 2 2 2 2 1 1 1 1 1 1 1 1 1 1 1 1 1 0 0 0 0 0 0 1 1 1 1
-1 -0 0 1 2 3 4 2 1 1 2 2 2 2 2 1 1 2 2 1 1 1 1 1 1 1 1 1 1 1 0 0 0 -0 -0 -0 -0 -0 -0 -0 0 0 0 0
-2 -1 0 1 2 2 4 2 0 1 2 2 1 1 1 1 2 3 1 1 1 1 0 0 0 0 0 0 0 0 -0 -0 -0 -0 -0 -0 -0 -0 -0 -0 -0 -0 -0 -0
-2 -1 -0 1 1 3 2 -0 0 2 3 1 1 0 0 1 1 1 0 0 0 0 0 0 0 0 -0 -0 -0 -0 -0 -1 -1 -1 -1 -1 -1 -1 -1 -1 -1 -1 -1 -1
-0 -0 -1 -0 1 2 1 -0 1 2 1 0 -0 -0 -0 -0 -0 -0 -0 -1 -1 -0 -0 -0 -0 -0 -1 -1 -1 -1 -1 -1 -1 -1 -1 -1 -1 -1 -1 -1 -1 -1 -1 -1
-1 -0 1 1 2 1 -1 -0 -0 -0 -1 -0 -1 -1 -1 -1 -1 -1 -1 -1 -1 -1 -1 -1 -1 -1 -1 -1 -1 -1 -1 -1 -1 -2 -2 -2 -2 -2 -2 -2 -2 -2 -2 -2
-2 -3 -2 -2 -0 -1 -1 -1 -1 -1 -1 -1 -1 -1 -1 -1 -1 -2 -2 -2 -1 -1 -1 -1 -1 -1 -1 -1 -1 -2 -2 -2 -2 -2 -2 -2 -2 -2 -2 -2 -2 -2 -2 -3
-1 -3 -2 -2 -1 -2 -1 -2 -2 -2 -2 -2 -2 -1 -2 -2 -2 -2 -2 -2 -2 -2 -2 -2 -2 -2 -2 -2 -2 -2 -2 -2 -2 -2 -2 -3 -3 -3 -2 -2 -3 -3 -3 -3
-2 -2 -2 -0 -1 -1 -1 -2 -2 -2 -2 -2 -2 -2 -2 -2 -2 -2 -2 -2 -2 -2 -2 -2 -2 -2 -2 -2 -2 -2 -2 -2 -3 -3 -3 -3 -3 -3 -3 -3 -3 -3 -3 -3
Wind_Speed
1 3 5 7 7 5 5 7 9 7 3 7 12 15 13 10 10 10 9 9 8 8 6 5 5 5 5 5 5 5 5 5 4 4 3 3 3 2 2 2 3 3 3 3
3 6 5 4 5 5 6 8 9 6 3 6 11 15 13 10 10 10 9 9 8 7 6 5 5 5 5 5 5 5 5 5 5 4 4 3 3 3 2 2 3 3 3 3
6 1 2 4 5 6 7 8 8 7 6 6 8 10 9 7 7 7 7 7 7 7 6 6 6 6 5 5 6 5 5 5 5 5 3 3 2 2 2 3 2 3 3 4
4 2 3 4 5 6 7 5 6 6 6 5 4 7 8 7 7 6 6 5 5 5 5 5 5 6 6 6 6 6 6 5 5 5 5 5 5 4 4 3 3 3 3 4
3 2 3 5 4 5 3 2 4 6 6 7 6 6 7 5 7 7 6 5 5 5 4 5 5 5 5 5 5 5 6 5 5 5 6 6 6 5 3 3 4 3 3 4
1 1 2 3 2 3 2 1 1 2 4 7 8 8 8 5 7 6 5 5 5 5 4 4 4 4 4 4 5 5 6 5 5 6 6 7 7 6 5 5 4 4 3 3
2 2 1 1 1 2 2 2 2 3 5 6 4 7 9 5 5 6 6 6 5 4 4 4 4 4 4 5 5 5 6 6 6 6 7 7 7 7 7 6 5 5 4 4
4 4 3 2 3 4 5 5 4 5 6 5 5 9 6 3 3 4 5 4 4 4 4 5 5 5 5 6 6 6 6 6 6 6 7 7 7 6 5 6 6 6 5 5
4 4 0 1 2 4 4 5 3 2 4 6 6 7 7 4 4 4 4 4 4 5 5 5 5 5 5 6 6 7 7 6 6 6 6 6 6 6 6 6 6 5 5 5
2 4 2 1 1 1 2 3 3 4 4 7 8 8 6 4 4 3 4 5 6 6 5 5 5 5 5 5 6 7 7 7 6 6 6 5 6 6 5 6 6 6 6 5
2 3 2 2 5 6 4 4 4 4 4 5 7 6 2 3 3 4 5 5 6 7 6 6 6 5 5 5 5 6 6 6 5 5 5 5 5 5 5 5 6 6 6 6
2 2 3 4 2 3 5 5 6 5 5 5 7 7 0 2 3 4 5 6 7 6 6 6 6 5 4 4 4 5 5 5 5 4 5 5 4 4 5 5 5 5 6 5
3 3 2 2 2 2 3 4 5 3 4 7 8 7 0 3 5 5 6 8 7 7 6 5 4 4 4 4 3 4 4 4 4 4 4 4 4 4 5 5 5 5 5 5
2 3 6 8 5 3 5 7 7 7 7 9 13 14 11 10 10 10 9 9 8 7 7 5 4 4 4 4 3 3 4 4 4 4 4 4 4 4 4 4 4 5 5 5
2 4 6 8 7 5 7 9 10 13 13 12 13 15 16 14 12 11 10 9 9 8 7 6 5 4 4 3 3 3 3 3 3 4 4 4 4 3 3 3 4 4 4 5
2 3 3 6 6 6 9 12 13 15 15 17 18 18 15 12 10 10 10 9 9 8 7 6 5 4 4 4 3 3 3 3 3 3 3 3 3 3 3 2 3 3 4 4
3 4 3 5 3 4 9 11 12 10 11 11 15 14 11 11 10 10 9 9 9 8 7 6 5 5 4 4 3 3 3 3 2 3 3 3 3 3 2 2 2 3 4 4
5 4 3 3 1 8 5 1 6 10 11 12 12 12 10 10 11 9 8 8 8 7 6 6 5 4 4 4 3 2 2 2 2 2 3 3 2 2 2 2 2 2 2 3
5 5 3 3 5 9 7 4 4 6 9 8 11 12 11 9 9 7 6 6 7 7 6 5 4 3 3 3 2 1 2 2 2 2 3 3 3 2 2 3 2 2 2 2
2 4 4 4 5 7 5 2 2 3 6 4 6 9 8 6 6 7 6 5 5 5 4 3 3 2 2 2 2 1 2 2 2 3 3 3 3 3 3 3 2 2 2 2
3 3 7 8 8 8 4 0 3 4 5 5 6 7 7 6 7 7 7 6 4 4 3 2 2 2 2 2 1 2 2 3 3 2 2 2 2 3 3 2 2 2 1 1
6 6 6 6 7 8 3 4 5 7 8 8 8 8 8 9 8 7 7 5 4 4 3 2 2 2 2 2 1 2 2 2 2 1 1 2 2 2 2 2 2 2 2 2
7 6 5 7 7 4 4 5 6 7 9 9 8 8 8 9 8 7 7 6 5 4 3 2 2 2 3 2 2 2 2 2 1 1 1 2 2 2 2 3 3 2 2 2
5 3 4 6 9 9 9 9 9 9 9 10 10 9 8 8 8 7 6 6 5 4 3 3 2 2 3 3 2 2 2 2 2 2 2 2 2 2 2 2 3 3 3 3
5 5 5 8 9 9 8 8 10 10 9 10 10 8 8 7 7 7 6 6 5 4 4 3 3 3 3 3 2 2 2 2 2 2 2 2 2 2 2 2 2 3 3 3
6 7 7 8 7 7 8 9 9 9 10 9 9 8 7 6 6 6 6 6 5 5 4 3 3 4 3 3 3 2 2 2 2 2 2 2 2 2 2 2 1 1 2 3
Wind_Direction
160 193 214 217 222 251 239 242 255 262 265 260 258 266 270 268 258 257 254 250 252 255 255 234 212 207 201 197 192 190 190 191 186 188 189 193 199 203 203 200 207 209 209 205
182 226 232 220 211 222 237 249 261 274 268 270 271 271 268 259 252 251 252 252 254 261 255 230 209 204 204 200 197 195 196 197 197 201 203 208 203 212 211 207 210 215 218 214
217 238 192 195 204 224 238 244 258 273 294 256 280 269 245 246 248 252 255 256 258 255 249 229 218 212 210 208 205 202 203 204 204 201 193 178 186 204 211 214 218 220 221 217
232 231 198 214 230 230 247 251 257 263 270 263 260 276 249 243 252 253 256 258 260 257 245 228 218 215 212 214 212 210 205 205 205 202 200 193 203 212 226 224 223 222 223 221
221 218 218 234 247 230 254 260 249 261 257 265 244 256 266 243 258 259 256 259 264 257 245 230 224 221 220 217 215 215 210 207 207 207 207 206 212 213 215 219 222 223 222 222
235 247 243 252 284 225 199 221 226 227 238 251 238 238 267 239 252 268 262 261 263 257 245 240 235 227 222 218 214 214 210 211 211 211 213 213 216 214 209 215 220 223 226 224
242 221 186 178 171 185 210 216 239 231 230 246 210 234 253 258 256 258 260 263 266 257 246 244 237 234 230 218 211 210 210 212 214 215 216 217 218 216 215 219 220 222 224 230
227 236 204 216 229 219 218 223 225 242 252 262 226 237 248 257 269 268 266 264 272 271 263 255 245 240 235 225 216 210 212 216 215 217 219 220 221 220 221 222 223 225 227 229
228 241 171 265 286 211 197 217 246 248 285 265 244 253 268 258 260 265 271 268 270 278 273 264 257 251 242 230 223 218 214 216 219 221 220 221 221 221 223 224 225 227 229 229
232 252 254 262 215 207 245 188 179 204 243 258 258 253 250 239 254 268 282 279 285 286 277 269 264 257 248 237 226 220 218 217 220 222 221 224 224 224 223 222 223 223 225 222
250 222 245 224 217 221 187 189 209 210 247 254 263 259 248 250 271 278 291 302 303 298 288 274 267 258 252 243 229 222 221 218 218 221 223 226 228 226 223 221 224 223 222 218
199 210 244 251 277 296 229 216 199 219 234 235 259 267 327 261 307 306 310 316 313 311 301 286 275 262 250 241 234 226 223 222 221 219 223 226 227 222 221 224 226 221 217 218
168 185 233 243 206 204 229 229 223 226 234 230 242 257 128 322 320 316 312 316 318 317 311 303 288 269 255 246 242 239 232 229 227 224 226 225 221 220 223 224 222 217 214 214
196 209 232 247 270 216 237 237 222 213 233 243 244 263 282 297 303 309 313 316 315 313 310 305 301 292 279 260 251 246 242 235 229 224 229 230 225 225 227 226 221 213 209 210
189 234 248 266 272 250 244 245 231 227 239 250 264 266 279 295 299 301 305 309 309 308 306 298 295 290 285 277 262 254 248 242 231 225 229 235 233 231 229 222 209 208 212 216
195 229 248 269 257 254 264 257 246 244 246 252 265 273 281 292 297 297 298 300 300 299 297 294 290 286 280 278 279 273 256 247 237 230 233 237 234 223 221 211 196 204 215 213
194 192 217 259 281 277 261 248 237 236 234 242 254 264 288 295 295 294 295 292 289 292 290 287 286 284 284 280 276 265 273 253 245 243 237 235 231 221 213 200 192 202 207 207
193 198 216 248 224 244 257 225 234 239 247 241 253 271 283 289 297 293 287 286 286 287 285 282 284 288 292 291 284 282 283 263 250 252 241 231 223 225 209 197 201 198 197 205
208 198 206 216 245 268 277 254 226 235 261 252 253 271 287 307 306 292 294 284 277 278 280 277 277 281 288 285 283 284 290 281 259 255 249 236 217 212 206 202 204 203 195 204
197 209 213 217 241 254 274 316 284 230 265 258 250 272 291 307 296 301 326 313 297 292 288 282 284 281 283 287 278 268 275 278 265 261 258 245 225 208 207 208 205 210 206 204
176 202 220 231 243 261 279 244 158 227 281 306 279 276 278 270 272 296 308 310 302 295 294 293 289 281 283 282 265 259 271 277 278 271 261 242 224 212 207 198 197 192 191 186
194 198 208 214 234 252 200 161 217 269 302 296 291 285 280 277 283 287 293 297 294 288 284 282 281 291 295 280 243 249 270 288 288 260 240 228 224 212 192 178 184 190 187 184
214 216 220 214 234 281 210 240 273 295 290 291 289 287 280 278 279 282 286 287 282 276 270 269 254 278 294 288 257 250 271 282 272 248 232 227 218 209 193 184 184 193 196 196
230 226 232 251 261 273 273 277 285 287 285 290 289 284 276 272 272 276 278 280 280 276 265 255 243 251 274 286 280 262 263 253 238 238 237 224 211 198 194 198 193 198 204 206
233 199 228 254 274 287 276 279 286 290 292 293 292 285 275 265 264 265 270 272 272 272 264 250 242 247 259 269 267 266 254 229 232 237 236 227 216 203 203 205 205 213 223 222
228 221 230 252 265 266 283 298 298 295 295 296 295 297 288 265 259 265 269 269 265 263 256 247 246 248 254 256 258 260 245 223 218 229 234 228 221 217 206 195 202 208 233 245
Height
1509 1509 1506 1507 1508 1508 1507 1506 1504 1505 1509 1509 1504 1501 1499 1501 1501 1500 1500 1500 1500 1501 1501 1501 1502 1502 1503 1504 1504 1506 1507 1508 1509 1509 1510 1511 1512 1513 1514 1515 1515 1516 1516 1517
1507 1506 1507 1509 1510 1510 1509 1507 1504 1506 1509 1509 1503 1498 1495 1496 1496 1497 1496 1496 1497 1497 1497 1498 1498 1499 1499 1500 1501 1502 1504 1505 1505 1506 1507 1508 1509 1509 1510 1511 1512 1512 1513 1514
1503 1507 1509 1509 1508 1508 1506 1505 1505 1506 1508 1507 1505 1492 1489 1490 1493 1493 1494 1493 1493 1493 1493 1494 1494 1495 1496 1497 1498 1499 1500 1501 1502 1503 1504 1505 1506 1506 1507 1508 1508 1509 1509 1510
1505 1508 1509 1508 1507 1507 1504 1507 1508 1508 1506 1500 1504 1492 1482 1485 1488 1489 1490 1490 1489 1490 1490 1490 1491 1492 1492 1494 1495 1496 1497 1498 1499 1500 1500 1501 1501 1502 1503 1504 1504 1505 1506 1506
1505 1508 1508 1507 1507 1507 1506 1508 1508 1508 1506 1505 1501 1500 1480 1482 1483 1483 1485 1486 1486 1487 1487 1487 1488 1488 1489 1490 1491 1492 1493 1494 1495 1496 1497 1497 1498 1499 1500 1500 1501 1501 1502 1503
1507 1510 1509 1508 1509 1509 1509 1509 1509 1509 1506 1504 1496 1496 1479 1477 1479 1480 1482 1483 1483 1484 1484 1485 1485 1485 1486 1487 1488 1488 1489 1490 1491 1492 1493 1494 1494 1495 1495 1496 1497 1498 1498 1499
1506 1508 1509 1510 1508 1509 1508 1506 1503 1500 1499 1490 1495 1494 1480 1476 1479 1480 1480 1480 1481 1481 1482 1482 1482 1481 1482 1482 1483 1484 1485 1486 1487 1487 1488 1489 1490 1491 1491 1492 1493 1493 1494 1495
1501 1501 1506 1508 1506 1506 1505 1503 1501 1496 1488 1484 1494 1486 1474 1477 1479 1479 1479 1479 1479 1479 1479 1478 1478 1478 1478 1478 1479 1480 1481 1481 1482 1483 1484 1485 1486 1487 1487 1488 1489 1489 1490 1491
1499 1500 1507 1508 1507 1506 1504 1502 1503 1502 1503 1497 1481 1478 1475 1475 1476 1477 1477 1477 1477 1476 1476 1475 1475 1475 1474 1475 1475 1476 1476 1477 1477 1478 1479 1480 1481 1482 1482 1483 1484 1485 1486 1487
1502 1504 1505 1507 1507 1507 1506 1504 1505 1503 1498 1486 1475 1474 1469 1470 1471 1473 1474 1474 1474 1474 1473 1472 1472 1471 1471 1471 1472 1472 1473 1473 1473 1474 1474 1475 1476 1477 1478 1479 1480 1481 1481 1482
1505 1505 1506 1506 1504 1502 1506 1506 1503 1499 1497 1488 1476 1468 1467 1469 1470 1471 1472 1472 1472 1471 1471 1470 1469 1469 1468 1468 1469 1469 1469 1469 1470 1470 1470 1471 1472 1473 1474 1475 1476 1476 1477 1478
1505 1503 1502 1502 1505 1505 1502 1500 1501 1499 1498 1495 1483 1473 1470 1471 1471 1472 1471 1470 1470 1469 1468 1467 1467 1466 1466 1466 1466 1466 1466 1466 1466 1466 1467 1467 1468 1469 1470 1470 1471 1472 1472 1473
1504 1505 1501 1497 1504 1506 1504 1502 1501 1502 1498 1491 1483 1471 1470 1471 1470 1470 1470 1469 1467 1467 1465 1464 1463 1463 1463 1463 1463 1463 1463 1463 1463 1463 1463 1463 1464 1465 1465 1466 1467 1467 1468 1469
1502 1503 1498 1490 1487 1495 1499 1499 1500 1499 1492 1483 1478 1469 1467 1468 1468 1468 1468 1467 1466 1464 1463 1462 1461 1460 1460 1460 1460 1460 1460 1460 1460 1460 1460 1460 1460 1461 1461 1462 1462 1463 1463 1464
1501 1500 1500 1496 1495 1496 1495 1495 1495 1494 1487 1483 1472 1471 1466 1467 1468 1467 1466 1465 1463 1462 1461 1460 1459 1458 1457 1457 1457 1457 1457 1457 1457 1456 1456 1456 1457 1457 1457 1458 1458 1459 1459 1460
1501 1500 1500 1497 1495 1495 1494 1489 1488 1487 1485 1480 1476 1472 1467 1467 1467 1465 1464 1462 1461 1459 1458 1457 1456 1456 1455 1454 1454 1454 1454 1454 1454 1453 1453 1453 1453 1453 1454 1454 1454 1455 1455 1456
1499 1500 1498 1489 1493 1494 1486 1480 1480 1480 1477 1476 1472 1467 1465 1465 1463 1463 1461 1460 1458 1457 1456 1455 1454 1453 1453 1452 1452 1451 1451 1451 1451 1450 1450 1450 1450 1450 1450 1451 1451 1451 1452 1453
1497 1497 1496 1491 1495 1489 1471 1474 1474 1474 1472 1472 1469 1466 1465 1463 1461 1460 1459 1457 1456 1454 1453 1452 1452 1451 1450 1450 1450 1449 1449 1449 1448 1448 1448 1448 1447 1447 1447 1448 1448 1449 1449 1450
1494 1494 1492 1490 1484 1473 1470 1472 1474 1473 1468 1466 1466 1463 1462 1461 1459 1456 1455 1454 1453 1452 1451 1450 1449 1449 1448 1448 1447 1447 1446 1446 1446 1445 1445 1445 1445 1444 1445 1445 1445 1446 1447 1447
1494 1493 1491 1487 1482 1473 1465 1470 1471 1472 1465 1461 1462 1461 1460 1460 1457 1453 1452 1451 1450 1449 1448 1447 1446 1446 1446 1445 1445 1445 1444 1444 1443 1443 1443 1443 1443 1443 1443 1443 1443 1444 1445 1445
1491 1490 1488 1483 1478 1467 1467 1469 1470 1469 1460 1460 1459 1458 1458 1457 1455 1453 1450 1449 1447 1446 1445 1444 1444 1443 1443 1443 1443 1442 1442 1442 1441 1441 1441 1440 1441 1441 1441 1441 1442 1442 1442 1443
1481 1482 1483 1481 1477 1468 1466 1468 1467 1461 1459 1458 1456 1456 1454 1453 1451 1449 1448 1446 1444 1443 1443 1442 1441 1441 1441 1441 1440 1440 1440 1440 1439 1439 1438 1438 1438 1439 1439 1439 1440 1440 1441 1441
1477 1475 1472 1471 1466 1463 1464 1463 1461 1460 1458 1455 1454 1452 1451 1449 1447 1446 1444 1443 1442 1441 1440 1440 1439 1438 1438 1438 1438 1438 1438 1437 1437 1436 1436 1436 1436 1436 1437 1437 1438 1438 1439 1439
1474 1475 1473 1470 1462 1462 1461 1460 1458 1456 1454 1452 1450 1448 1447 1445 1444 1442 1441 1440 1439 1438 1438 1437 1437 1436 1436 1436 1436 1436 1436 1435 1435 1434 1434 1434 1434 1434 1435 1435 1436 1436 1436 1437
1467 1470 1469 1465 1461 1459 1456 1456 1454 1452 1450 1448 1446 1444 1443 1441 1439 1439 1438 1437 1436 1435 1435 1435 1434 1434 1433 1433 1433 1433 1433 1433 1433 1432 1432 1431 1432 1432 1432 1433 1433 1434 1434 1434
1463 1464 1463 1457 1456 1457 1453 1452 1451 1449 1447 1445 1442 1440 1439 1438 1436 1435 1434 1434 1433 1432 1432 1432 1432 1431 1431 1431 1430 1431 1431 1431 1430 1430 1429 1429 1429 1429 1429 1430 1431 1431 1432 1432